Flag for Canada Weather past 2 weeks in Montreal, Quebec, Canada

Now
28 °F

Light snow. Overcast.


Feels Like: 18 °F
Forecast: 6 / 29 °F
Wind: 12 mph from Southeast

Location: Montreal - Pierre Elliot Trudeau International Aiport

Current Time: Jan 30, 2015 at 1:02:23 AM

Latest Report: Jan 30, 2015 at 12:00 AM


Visibility: 10 mi

Pressure: 29.80 "Hg

Humidity: 86%

Dew point: 25 °F

Location of MontrealLocation

Historic Weather in Montreal — Graph

°F

Montreal temperature yesterday

Maximum temperature yesterday: 30 °F (at 9:00 PM)
Minimum temperature yesterday: 3 °F (at 5:00 AM)
Average temperature yesterday: 16 °F

Past Weeks' High & Low Weather Summary

 TemperatureHumidityPressure
High36 °F (Jan 18, 1:00 PM)100% (Jan 19, 4:00 AM)30.45 "Hg (Jan 19, 4:00 AM)
Low-9 °F (Jan 17, 5:00 AM)39% (Jan 29, 3:00 PM)29.30 "Hg (Jan 25, 1:00 AM)
Average13 °F67%29.99 "Hg
* Reported Midnight between Jan 14 and Jan 15 — Midnight between Jan 29 and Jan 30, Montreal, Weather by CustomWeather, © 2014

Note: Actual official high and low records may vary slightly from our data, if they occured in-between our weather recording intervals... More about our weather records

Advertising

Montreal weather history for previous 24 hours

 ConditionsComfort  
Time TempWeatherWind HumidityBarometerVisibility
12:00 AM
Jan 30
28 °FLight snow. Overcast.12 mph86%29.80 "Hg10 mi
11:00 PM
Jan 29
28 °FLight snow. Mostly cloudy.16 mph80%29.81 "Hg2 mi
10:00 PM30 °FLight snow. Overcast.14 mph55%29.82 "Hg10 mi
9:00 PM30 °FLight snow. Overcast.16 mph59%29.83 "Hg7 mi
8:00 PM23 °FCold.18 mph93%29.86 "Hg1 mi
7:00 PM19 °FSnow. Ice fog.8 mph73%29.91 "Hg1 mi
6:00 PM19 °FLight snow. Mostly cloudy.10 mph63%29.94 "Hg15 mi
5:00 PM19 °FMostly cloudy.15 mph58%29.96 "Hg15 mi
4:00 PM19 °FOvercast.12 mph58%29.99 "Hg15 mi
3:00 PM25 °FOvercast.10 mph39%30.00 "Hg15 mi
2:00 PM23 °FOvercast.12 mph42%30.03 "Hg15 mi
1:00 PM21 °FMostly cloudy.14 mph45%30.08 "Hg15 mi
12:00 PM21 °FMostly cloudy.8 mph54%30.14 "Hg15 mi
11:00 AM18 °FPartly sunny.8 mph58%30.20 "Hg30 mi
10:00 AM14 °FPartly sunny.5 mph57%30.24 "Hg30 mi
9:00 AM12 °FPartly sunny.5 mph57%30.27 "Hg30 mi
8:00 AM9 °FPartly sunny.6 mph61%30.28 "Hg30 mi
7:00 AM7 °FPassing clouds.3 mph66%30.30 "Hg30 mi
6:00 AM5 °FClear.5 mph66%30.31 "Hg15 mi
5:00 AM3 °FClear.2 mph60%30.31 "Hg15 mi
4:00 AM7 °FClear.5 mph56%30.32 "Hg15 mi
3:00 AM5 °FClear.6 mph55%30.32 "Hg15 mi
2:00 AM9 °FClear.6 mph51%30.32 "Hg15 mi
1:00 AM9 °FClear.7 mph51%30.31 "Hg15 mi
Weather by CustomWeather, © 2014

See weather overviewHow to use our weather pages